Tracking 20942 objects as of 4-Jul-2020
HD Live streaming from Space Station
objects crossing your sky now

COSMOS 1275 DEB

Track COSMOS 1275 DEB now!
10-day predictions


NORAD ID: 14440
Int'l Code: 1981-053JK
Perigee: 951.5 km
Apogee: 1,122.8 km
Inclination: 82.9 °
Period: 105.8 minutes
Semi major axis: 7408 km
RCS: 0.017 m2 (small)
Launch date: June 4, 1981
Source: Commonwealth of Independent States (former USSR) (CIS)
Launch site: PLESETSK MISSILE AND SPACE COMPLEX (PKMTR)

Note: This is SATELLITE DEBRIS
aabbcc
Your satellite tracking list
Your tracking list is empty




NASA's NSSDC Master Catalog

Two Line Element Set (TLE):
1 14440U 81053JG  20185.85351594  .00000341  00000-0  40894-3 0  9992
2 14440  82.9225 338.6988 0115603 230.1331 254.3036 13.61569446917686
Source of the keplerian elements: AFSPC